FW8712 Weather Reports


time (UTC)temp
F
wind
direction
speed
knots
gust
knots
rain 1hr
in
rain 24hr
in
rain mn
in
humidity
%
barometer
mb
20260510083043 49 248 3.5 10.4 0.00 0.07 0.00 81 1005.3
20260510082537 49 227 4.3 10.4 0.00 0.07 0.00 83 1005.3
20260510082039 49 234 5.2 13.9 0.00 0.07 0.00 83 1005.1
20260510081543 49 237 3.5 13.9 0.00 0.07 0.00 84 1005.0
20260510081039 49 219 7.0 13.9 0.00 0.07 0.00 85 1005.0
20260510080539 50 230 5.2 11.3 0.00 0.07 0.00 85 1005.0
20260510080050 50 218 7.0 13.0 0.00 0.07 0.00 85 1005.0
20260510075539 50 202 7.8 13.0 0.00 0.07 0.00 86 1004.9
20260510075043 49 219 5.2 12.2 0.00 0.07 0.00 87 1004.9
20260510074549 50 226 7.8 12.2 0.00 0.07 0.00 87 1004.8
20260510074041 50 219 5.2 10.4 0.00 0.07 0.00 88 1004.7
20260510073541 50 215 6.1 10.4 0.00 0.07 0.00 88 1004.6
20260510073050 50 202 6.1 10.4 0.00 0.07 0.00 88 1004.7
20260510072538 50 234 7.0 10.4 0.00 0.07 0.00 88 1004.6
20260510072038 50 197 7.0 10.4 0.00 0.07 0.00 88 1004.5
20260510071552 50 207 6.1 11.3 0.00 0.07 0.00 88 1004.4
20260510071038 50 252 7.0 13.0 0.00 0.07 0.00 89 1004.3
20260510070540 50 207 6.1 13.0 0.00 0.07 0.00 89 1004.3
20260510070052 50 197 6.1 12.2 0.00 0.07 0.00 89 1004.3
20260510065539 50 213 6.1 12.2 0.00 0.07 0.00 89 1004.2
20260510065038 50 217 7.8 12.2 0.00 0.07 0.00 88 1004.2
20260510064550 51 207 7.0 11.3 0.00 0.07 0.00 88 1004.2
20260510064038 51 211 7.0 12.2 0.00 0.07 0.00 89 1004.0
20260510063540 51 207 6.1 13.0 0.00 0.07 0.00 89 1003.9
20260510063050 51 191 7.0 13.0 0.00 0.07 0.00 89 1003.8
20260510062540 51 207 7.8 13.0 0.00 0.07 0.00 89 1003.8
20260510062038 51 185 8.7 13.0 0.00 0.07 0.00 89 1003.8
20260510061552 51 213 7.0 12.2 0.00 0.07 0.00 89 1003.7
20260510061039 51 225 8.7 13.9 0.00 0.07 0.00 89 1003.7
20260510060539 51 197 9.6 13.9 0.00 0.07 0.00 89 1003.7
20260510060048 51 224 7.8 10.4 0.00 0.07 0.00 89 1003.6
20260510055539 51 207 4.3 12.2 0.00 0.07 0.00 89 1003.7
20260510055039 52 211 6.1 12.2 0.00 0.07 0.00 89 1003.7
20260510054546 52 189 7.8 12.2 0.00 0.07 0.00 89 1003.6
20260510054039 52 192 7.8 12.2 0.00 0.07 0.00 88 1003.6
20260510053539 52 211 7.8 13.9 0.00 0.07 0.00 88 1003.6
20260510053059 52 202 7.8 13.9 0.00 0.07 0.00 88 1003.5
20260510052540 52 193 7.0 12.2 0.00 0.07 0.00 89 1003.5
20260510052040 52 239 2.6 7.8 0.00 0.07 0.00 88 1003.6
20260510051551 52 247 3.5 14.8 0.00 0.07 0.00 88 1003.5
20260510051039 52 290 3.5 14.8 0.00 0.07 0.00 88 1003.3
20260510050538 52 163 8.7 14.8 0.00 0.07 0.00 88 1003.1
20260510050050 52 207 7.8 13.0 0.00 0.07 0.00 88 1003.4
20260510045536 52 207 7.8 13.0 0.00 0.07 0.00 88 1003.2
20260510045121 52 192 8.7 13.0 0.00 0.07 0.00 88 1003.1
20260510044551 53 194 7.0 12.2 0.00 0.07 0.00 88 1003.0
20260510044036 53 217 7.0 11.3 0.00 0.07 0.00 88 1002.9
20260510043538 53 219 7.0 10.4 0.00 0.07 0.00 88 1002.8
20260510043100 53 207 7.0 10.4 0.00 0.07 0.00 88 1002.7
20260510042539 53 197 7.0 12.2 0.00 0.07 0.00 87 1002.4
20260510042044 53 211 7.0 13.0 0.00 0.07 0.00 87 1002.5
20260510041549 53 226 7.0 13.0 0.00 0.07 0.00 87 1002.4
20260510041039 53 216 7.8 13.0 0.00 0.07 0.00 87 1002.3
20260510040538 53 202 7.0 11.3 0.00 0.07 0.00 87 1002.3
20260510040046 53 202 7.0 12.2 0.00 0.07 0.00 87 1002.1
20260510035539 53 192 7.8 13.9 0.00 0.07 0.07 86 1002.0
20260510035039 54 213 7.8 13.9 0.00 0.07 0.07 86 1002.3
20260510034544 54 207 7.8 13.9 0.00 0.07 0.07 86 1002.3
20260510034038 54 228 7.8 13.9 0.00 0.07 0.07 86 1002.4
20260510033537 54 207 8.7 13.9 0.00 0.07 0.07 86 1002.3
20260510033057 54 217 7.8 13.0 0.00 0.07 0.07 85 1002.4
20260510032538 54 213 8.7 13.9 0.02 0.07 0.07 85 1002.3
20260510032039 54 202 7.8 16.5 0.02 0.07 0.07 85 1002.5
20260510031549 54 191 8.7 16.5 0.03 0.07 0.07 85 1002.5
20260510031036 54 213 7.8 17.4 0.04 0.07 0.07 85 1002.5
20260510030540 54 184 9.6 17.4 0.07 0.07 0.07 85 1002.4
20260510030047 54 171 10.4 17.4 0.07 0.07 0.07 85 1002.3
20260510025537 54 182 8.7 16.5 0.07 0.07 0.07 85 1002.3
20260510025038 54 190 8.7 15.6 0.07 0.07 0.07 84 1002.3
20260510024550 54 202 9.6 14.8 0.07 0.07 0.07 83 1002.2
20260510024039 55 186 9.6 14.8 0.07 0.07 0.07 82 1002.3
20260510023536 55 197 9.6 14.8 0.07 0.07 0.07 80 1002.3
20260510023048 55 187 8.7 14.8 0.06 0.06 0.06 78 1002.4
20260510022537 56 211 8.7 14.8 0.05 0.05 0.05 77 1002.3
20260510022038 56 192 8.7 14.8 0.05 0.05 0.05 76 1002.1
20260510021549 56 156 7.8 13.9 0.04 0.04 0.04 74 1001.8
20260510021037 57 169 9.6 14.8 0.02 0.02 0.02 72 1001.7
20260510020538 58 166 9.6 14.8 0.00 0.00 0.00 69 1001.6
20260510020050 58 153 9.6 14.8 0.00 0.00 0.00 68 1001.6
20260510015537 58 167 11.3 14.8 0.00 0.00 0.00 67 1001.5
20260510015037 58 163 9.6 17.4 0.00 0.00 0.00 67 1001.4
20260510014550 59 161 10.4 17.4 0.00 0.00 0.00 66 1001.5
20260510014037 59 144 8.7 14.8 0.00 0.00 0.00 66 1001.6
20260510013537 59 146 11.3 15.6 0.00 0.00 0.00 65 1001.7
20260510013053 59 169 9.6 15.6 0.00 0.00 0.00 65 1001.9
20260510012539 59 140 8.7 13.9 0.00 0.00 0.00 64 1001.8
20260510012036 59 168 7.0 13.9 0.00 0.00 0.00 63 1001.9
20260510011550 59 157 8.7 13.9 0.00 0.00 0.00 61 1001.8
20260510011036 60 141 7.8 13.0 0.00 0.00 0.00 61 1001.8
20260510010535 60 156 8.7 12.2 0.00 0.00 0.00 60 1001.8
20260510010050 60 165 7.8 13.0 0.00 0.00 0.00 60 1001.9
20260510005536 60 163 8.7 13.0 0.00 0.00 0.00 59 1001.9
20260510005037 60 155 7.0 11.3 0.00 0.00 0.00 58 1001.9
20260510004553 60 153 6.1 11.3 0.00 0.00 0.00 57 1001.9
20260510004036 60 190 7.8 11.3 0.00 0.00 0.00 56 1001.9
20260510003535 60 154 7.8 12.2 0.00 0.00 0.00 56 1001.9
20260510003049 60 165 7.0 12.2 0.00 0.00 0.00 56 1001.9
20260510002541 61 164 7.8 14.8 0.00 0.00 0.00 56 1002.0
20260510002037 61 159 9.6 15.6 0.00 0.00 0.00 56 1002.1
20260510001549 61 157 7.8 15.6 0.00 0.00 0.00 57 1002.1
20260510001036 61 175 9.6 14.8 0.00 0.00 0.00 57 1002.0
20260510000539 61 148 10.4 14.8 0.00 0.00 0.00 57 1002.1
20260510000057 61 164 9.6 13.9 0.00 0.00 0.00 58 1002.2
20260509235536 61 163 9.6 14.8 0.00 0.00 0.00 58 1002.3
20260509235037 61 184 9.6 14.8 0.00 0.00 0.00 58 1002.4
20260509234545 61 173 7.8 14.8 0.00 0.00 0.00 58 1002.6
20260509234035 61 169 10.4 14.8 0.00 0.00 0.00 58 1002.6
20260509233534 61 148 8.7 16.5 0.00 0.00 0.00 58 1002.7
20260509233045 61 156 9.6 16.5 0.00 0.00 0.00 58 1002.8
20260509232535 62 171 7.8 16.5 0.00 0.00 0.00 58 1002.8
20260509232035 62 186 8.7 17.4 0.00 0.00 0.00 57 1002.8
20260509231545 62 177 10.4 18.2 0.00 0.00 0.00 57 1002.9
20260509231035 62 177 8.7 20.0 0.00 0.00 0.00 56 1002.9
20260509230534 62 169 12.2 20.0 0.00 0.00 0.00 56 1002.8
20260509230044 62 176 13.0 20.0 0.00 0.00 0.00 55 1002.8
20260509225537 63 182 11.3 17.4 0.00 0.00 0.00 54 1002.8
20260509225036 63 177 12.2 16.5 0.00 0.00 0.00 53 1002.6
20260509224549 63 187 9.6 13.9 0.00 0.00 0.00 50 1002.6
20260509224038 63 202 8.7 13.9 0.00 0.00 0.00 47 1002.6
20260509223536 64 207 7.8 15.6 0.00 0.00 0.00 46 1002.6
20260509223047 64 167 7.8 15.6 0.00 0.00 0.00 46 1002.6
20260509222537 64 178 10.4 16.5 0.00 0.00 0.00 46 1002.5
20260509222037 64 188 7.0 17.4 0.00 0.00 0.00 45 1002.4
20260509221546 64 168 8.7 19.1 0.00 0.00 0.00 45 1002.5
20260509221036 64 175 12.2 19.1 0.00 0.00 0.00 46 1002.5
20260509220537 64 180 13.9 19.1 0.00 0.00 0.00 46 1002.5
20260509220049 64 190 11.3 16.5 0.00 0.00 0.00 45 1002.3
20260509215537 64 161 7.0 15.6 0.00 0.00 0.00 43 1002.3
20260509215035 64 202 9.6 18.2 0.00 0.00 0.00 42 1002.3
20260509214559 64 187 10.4 20.0 0.00 0.00 0.00 41 1002.3
20260509214035 64 168 12.2 20.0 0.00 0.00 0.00 41 1002.6
20260509213535 65 207 10.4 18.2 0.00 0.00 0.00 41 1002.7
20260509213048 65 163 13.9 18.2 0.00 0.00 0.00 41 1002.6
20260509212537 65 170 10.4 20.9 0.00 0.00 0.00 37 1002.6
20260509212037 64 179 9.6 20.9 0.00 0.00 0.00 42 1002.6
20260509211547 65 169 9.6 16.5 0.00 0.00 0.00 42 1002.7
20260509211034 65 190 10.4 20.0 0.00 0.00 0.00 42 1002.8
20260509210535 65 166 11.3 20.0 0.00 0.00 0.00 42 1002.7
20260509210049 65 167 11.3 19.1 0.00 0.00 0.00 41 1002.7
20260509205536 65 207 11.3 17.4 0.00 0.00 0.00 40 1002.7
20260509205037 65 211 11.3 17.4 0.00 0.00 0.00 39 1002.8
20260509204549 65 213 10.4 16.5 0.00 0.00 0.00 40 1002.8
20260509204037 65 161 10.4 20.0 0.00 0.00 0.00 38 1002.8
20260509203536 65 151 12.2 20.0 0.00 0.00 0.00 36 1002.8
20260509203059 65 165 11.3 16.5 0.00 0.00 0.00 37 1002.8
20260509202537 65 207 12.2 17.4 0.00 0.00 0.00 34 1002.9
20260509202037 65 159 11.3 17.4 0.00 0.00 0.00 34 1002.8
20260509201553 65 125 12.2 20.0 0.00 0.00 0.00 35 1002.8
20260509201036 65 159 14.8 20.0 0.00 0.00 0.00 33 1002.9
20260509200536 65 147 12.2 20.0 0.00 0.00 0.00 33 1002.8
20260509200047 65 164 12.2 21.7 0.00 0.00 0.00 31 1003.0
20260509195536 65 159 12.2 21.7 0.00 0.00 0.00 30 1003.0
20260509195037 66 202 11.3 21.7 0.00 0.00 0.00 31 1002.9
20260509194548 65 179 12.2 20.0 0.00 0.00 0.00 32 1002.9
20260509194037 66 188 10.4 21.7 0.00 0.00 0.00 31 1003.1
20260509193536 65 167 12.2 21.7 0.00 0.00 0.00 31 1003.0
20260509193055 65 197 13.0 21.7 0.00 0.00 0.00 32 1003.1
20260509192537 65 182 12.2 19.1 0.00 0.00 0.00 32 1003.3
20260509192036 64 142 11.3 22.6 0.00 0.00 0.00 31 1003.4
20260509191557 64 163 14.8 22.6 0.00 0.00 0.00 32 1003.5
20260509191036 64 167 13.9 21.7 0.00 0.00 0.00 31 1003.3
20260509190541 64 132 13.9 20.9 0.00 0.00 0.00 30 1003.4
20260509190050 64 178 10.4 20.9 0.00 0.00 0.00 31 1003.5
20260509185538 64 155 12.2 20.9 0.00 0.00 0.00 31 1003.7
20260509185038 64 175 13.0 20.9 0.00 0.00 0.00 30 1003.8
20260509184557 64 138 14.8 20.9 0.00 0.00 0.00 30 1003.8
20260509184038 64 153 13.0 20.0 0.00 0.00 0.00 31 1003.8
20260509183537 64 186 10.4 20.0 0.00 0.00 0.00 31 1004.0
20260509183059 63 146 12.2 20.0 0.00 0.00 0.00 30 1004.2
20260509182539 64 151 13.9 20.0 0.00 0.00 0.00 31 1004.3
20260509182037 64 156 9.6 17.4 0.00 0.00 0.00 31 1004.4
20260509181546 64 168 12.2 18.2 0.00 0.00 0.00 31 1004.5
20260509181038 64 173 11.3 18.2 0.00 0.00 0.00 30 1004.6
20260509180538 64 180 9.6 16.5 0.00 0.00 0.00 31 1004.6
20260509180045 63 192 9.6 18.2 0.00 0.00 0.00 32 1004.4
20260509175538 63 140 10.4 22.6 0.00 0.00 0.00 31 1004.5
20260509175038 63 157 15.6 22.6 0.00 0.00 0.00 30 1004.7
20260509174607 63 175 10.4 24.3 0.00 0.00 0.00 31 1004.6
20260509174037 63 127 13.9 24.3 0.00 0.00 0.00 30 1004.9
20260509173537 63 153 13.0 24.3 0.00 0.00 0.00 33 1004.8
20260509173051 63 165 9.6 22.6 0.00 0.00 0.00 33 1004.8
20260509172538 62 168 13.0 22.6 0.00 0.00 0.00 32 1004.9
20260509172037 62 146 13.9 22.6 0.00 0.00 0.00 32 1005.0
20260509171547 62 168 14.8 22.6 0.00 0.00 0.00 32 1004.8
20260509171037 62 149 10.4 20.0 0.00 0.00 0.00 34 1004.9
20260509170538 63 154 13.9 19.1 0.00 0.00 0.00 33 1005.1
20260509170045 63 159 10.4 19.1 0.00 0.00 0.00 32 1005.1
20260509165536 63 161 7.8 19.1 0.00 0.00 0.00 32 1005.4
20260509165041 62 160 11.3 20.0 0.00 0.00 0.00 31 1005.7
20260509164546 62 156 10.4 20.0 0.00 0.00 0.00 32 1005.6
20260509164035 62 186 11.3 18.2 0.00 0.00 0.00 32 1005.7
20260509163537 62 184 11.3 18.2 0.00 0.00 0.00 32 1005.8
20260509163048 62 167 14.8 18.2 0.00 0.00 0.00 32 1006.0
20260509162535 62 153 10.4 17.4 0.00 0.00 0.00 34 1006.1
20260509162037 62 197 10.4 20.0 0.00 0.00 0.00 34 1006.1
20260509161549 61 188 10.4 20.0 0.00 0.00 0.00 32 1006.2
20260509161037 61 197 10.4 20.0 0.00 0.00 0.00 34 1006.4
20260509160538 61 156 9.6 20.9 0.00 0.00 0.00 34 1006.2
20260509160051 60 150 13.0 20.9 0.00 0.00 0.00 34 1006.2
20260509155538 60 152 13.9 19.1 0.00 0.00 0.00 34 1006.5
20260509155036 60 192 10.4 19.1 0.00 0.00 0.00 34 1006.7
20260509154549 60 178 13.9 20.0 0.00 0.00 0.00 36 1006.6
20260509154038 60 185 13.0 20.9 0.00 0.00 0.00 36 1006.7
20260509153538 60 202 11.3 20.9 0.00 0.00 0.00 36 1006.8
20260509153055 60 153 13.0 17.4 0.00 0.00 0.00 36 1006.8
20260509152541 60 163 8.7 18.2 0.00 0.00 0.00 39 1007.0
20260509152038 60 222 8.7 18.2 0.00 0.00 0.00 40 1007.1
20260509151544 59 167 10.4 18.2 0.00 0.00 0.00 41 1007.3
20260509151037 59 179 10.4 18.2 0.00 0.00 0.00 42 1007.5
20260509150535 59 222 11.3 18.2 0.00 0.00 0.00 42 1007.7
20260509150047 59 186 6.1 17.4 0.00 0.00 0.00 43 1007.6
20260509145538 58 219 11.3 16.5 0.00 0.00 0.00 43 1007.8
20260509145035 58 169 10.4 16.5 0.00 0.00 0.00 43 1007.7
20260509144547 58 159 10.4 16.5 0.00 0.00 0.00 46 1007.8
20260509144037 57 167 9.6 15.6 0.00 0.00 0.00 46 1007.8
20260509143537 57 190 8.7 15.6 0.00 0.00 0.00 48 1007.9
20260509143049 56 164 10.4 15.6 0.00 0.00 0.00 48 1007.8
20260509142537 55 207 7.0 13.9 0.00 0.00 0.00 51 1007.9
20260509142035 54 211 7.0 11.3 0.00 0.00 0.00 53 1008.1
20260509141547 54 131 4.3 8.7 0.00 0.00 0.00 54 1008.1
20260509141038 54 81 3.5 7.0 0.00 0.00 0.00 53 1008.1
20260509140537 53 158 1.7 13.0 0.00 0.00 0.00 53 1008.1
20260509140055 52 86 7.0 13.0 0.00 0.00 0.00 53 1008.1
20260509135541 52 215 2.6 8.7 0.00 0.00 0.00 54 1008.3
20260509135038 51 163 4.3 10.4 0.00 0.00 0.00 54 1008.4
20260509134551 51 144 4.3 10.4 0.00 0.00 0.00 55 1008.3
20260509134037 50 197 2.6 7.8 0.00 0.00 0.00 55 1008.5
20260509133537 50 186 1.7 7.0 0.00 0.00 0.00 56 1008.5
20260509133046 50 128 3.5 13.0 0.00 0.00 0.00 56 1008.6
20260509132538 49 190 4.3 13.0 0.00 0.00 0.00 56 1008.6
20260509132040 49 132 2.6 4.3 0.00 0.00 0.00 56 1008.7
20260509131550 49 140 1.7 6.1 0.00 0.00 0.00 58 1008.7
20260509131037 48 138 1.7 6.1 0.00 0.00 0.00 57 1008.7
20260509130538 48 143 2.6 6.1 0.00 0.00 0.00 57 1008.8
20260509130100 48 145 1.7 6.1 0.00 0.00 0.00 57 1008.8
20260509125538 47 137 0.9 4.3 0.00 0.00 0.00 59 1008.9
20260509125038 47 138 2.6 8.7 0.00 0.00 0.00 58 1008.9
20260509124552 47 140 2.6 8.7 0.00 0.00 0.00 59 1009.0
20260509124038 47 157 3.5 7.0 0.00 0.00 0.00 59 1008.9
20260509123537 46 155 3.5 7.8 0.00 0.00 0.00 60 1009.0
20260509123051 46 127 3.5 10.4 0.00 0.00 0.00 62 1009.0
20260509122538 45 170 4.3 10.4 0.00 0.00 0.00 62 1009.1
20260509122037 45 163 1.7 6.1 0.00 0.00 0.00 64 1009.0
20260509121547 44 112 2.6 6.1 0.00 0.00 0.00 65 1009.0
20260509121038 44 140 2.6 6.1 0.00 0.00 0.00 66 1009.0
20260509120537 44 147 2.6 6.1 0.00 0.00 0.00 66 1009.0
20260509120049 43 107 2.6 5.2 0.00 0.00 0.00 67 1008.9
20260509115537 43 124 3.5 6.1 0.00 0.00 0.00 68 1009.0
20260509115038 43 125 2.6 6.1 0.00 0.00 0.00 68 1009.0
20260509114557 42 137 2.6 6.1 0.00 0.00 0.00 68 1009.0
20260509114038 42 149 2.6 5.2 0.00 0.00 0.00 70 1009.0
20260509113537 42 121 2.6 6.1 0.00 0.00 0.00 70 1008.9
20260509113055 42 99 3.5 6.1 0.00 0.00 0.00 70 1009.0
20260509112537 42 96 3.5 7.0 0.00 0.00 0.00 71 1008.9
20260509112037 41 92 3.5 7.0 0.00 0.00 0.00 71 1008.9
20260509111548 41 90 2.6 6.1 0.00 0.00 0.00 71 1008.9
20260509111037 41 107 2.6 6.1 0.00 0.00 0.00 72 1008.9
20260509110537 41 130 2.6 6.1 0.00 0.00 0.00 72 1008.7
20260509110045 40 133 3.5 6.1 0.00 0.00 0.00 73 1008.8
20260509105538 40 115 1.7 7.0 0.00 0.00 0.00 73 1008.8
20260509105036 40 132 2.6 7.0 0.00 0.00 0.00 74 1008.8
20260509104547 40 103 4.3 7.0 0.00 0.00 0.00 74 1008.7
20260509104037 40 134 3.5 6.1 0.00 0.00 0.00 75 1008.7
20260509103537 40 106 2.6 7.0 0.00 0.00 0.00 75 1008.7
20260509103059 40 109 4.3 7.0 0.00 0.00 0.00 75 1008.6
20260509102535 40 121 4.3 6.1 0.00 0.00 0.00 75 1008.6
20260509102038 40 122 4.3 7.0 0.00 0.00 0.00 75 1008.7
20260509101600 40 119 3.5 7.0 0.00 0.00 0.00 75 1008.6
20260509101036 40 107 3.5 6.1 0.00 0.00 0.00 75 1008.6
20260509100538 40 122 3.5 6.1 0.00 0.00 0.00 75 1008.6
20260509100047 40 128 3.5 6.1 0.00 0.00 0.00 75 1008.6
20260509095535 40 124 4.3 6.1 0.00 0.00 0.00 75 1008.5
20260509095036 40 132 2.6 6.1 0.00 0.00 0.00 75 1008.4
20260509094602 40 115 2.6 6.1 0.00 0.00 0.00 74 1008.5
20260509094039 40 121 2.6 5.2 0.00 0.00 0.00 74 1008.5
20260509093536 40 111 2.6 6.1 0.00 0.00 0.00 74 1008.5
20260509093043 40 115 2.6 6.1 0.00 0.00 0.00 74 1008.5
20260509092535 40 106 3.5 6.1 0.00 0.00 0.00 74 1008.4
20260509092037 40 106 2.6 5.2 0.00 0.00 0.00 74 1008.5
20260509091548 40 119 2.6 5.2 0.00 0.00 0.00 73 1008.6
20260509091037 40 119 2.6 5.2 0.00 0.00 0.00 73 1008.5
20260509090538 40 121 1.7 3.5 0.00 0.00 0.00 73 1008.3
20260509090059 40 121 1.7 3.5 0.00 0.00 0.00 73 1008.5
20260509085535 40 122 1.7 5.2 0.00 0.00 0.00 73 1008.5
20260509085037 41 119 2.6 5.2 0.00 0.00 0.00 73 1008.5
20260509084554 41 134 1.7 4.3 0.00 0.00 0.00 73 1008.5
20260509084035 41 136 2.6 4.3 0.00 0.00 0.00 72 1008.4
20260509083536 41 134 1.7 4.3 0.00 0.00 0.00 72 1008.3